Weather History for Southport, NC

Change the Weather History Date:

Wednesday, September 18, 2013

  Actual Average (KILM) Record (KILM)
Temperature  
Mean Temperature 68 °F 74 °F  
Max Temperature 77 °F 83 °F 98 °F (1931)
Min Temperature 58 °F 65 °F 51 °F (1990)
Degree Days  
Heating Degree Days 0 0  
Month to date heating degree days 0  
Since 1 July heating degree days 0  
Cooling Degree Days 2 9  
Month to date cooling degree days 205  
Year to date cooling degree days 1828  
Growing Degree Days 18 (Base 50)    
Moisture  
Dew Point 57 °F    
Average Humidity 69    
Maximum Humidity 83    
Minimum Humidity 55    
Precipitation  
Precipitation 0.00 in 0.27 in 4.72 in (1928)
Month to date precipitation 4.91  
Year to date precipitation 43.88  
Sea Level Pressure  
Sea Level Pressure 30.19 in    
Wind  
Wind Speed 7 mph (NNE)    
Max Wind Speed 13 mph    
Max Gust Speed 18 mph    
Visibility 10 miles    
Events      
T = Trace of Precipitation, MM = Missing Value Source: NWS Daily Summary

Daily Weather History Graph

Daily Weather History Graph

Search for Another Location

Airport:

Trip Planner

Search our weather history database for the weather conditions in past years. The results will help you decide how hot, cold, wet, or windy it might be!

Date:

Astronomy

Sep. 18, 2013 Rise Set
Actual Time 6:57 AM EDT 7:14 PM EDT
Civil Twilight 6:32 AM EDT 7:39 PM EDT
Nautical Twilight 6:03 AM EDT 8:08 PM EDT
Astronomical Twilight 5:33 AM EDT 8:38 PM EDT
Moon 6:37 PM EDT 5:58 AM EDT
Length of Visible Light 13h 06m
Length of Day
12h 16m
Waxing Gibbous, 99% of the Moon is Illuminated
Sep 18
Waxing Gibbous
Sep 19
Full
Sep 26
Last Quarter
Oct 4
New
Oct 11
First Quarter

Hourly Weather History & Observations

Time (EDT) Temp. Dew Point Humidity Pressure Visibility Wind Dir Wind Speed Gust Speed Precip Events Conditions
12:15 AM 64.4 °F 55.6 °F 73% 30.23 in 10.0 mi North 9.2 mph - N/A   Scattered Clouds
12:35 AM 63.7 °F 55.0 °F 73% 30.22 in 10.0 mi NNE 9.2 mph - N/A   Scattered Clouds
12:55 AM 63.3 °F 54.9 °F 74% 30.22 in 10.0 mi North 6.9 mph - N/A   Clear
1:15 AM 62.6 °F 54.5 °F 75% 30.22 in 10.0 mi NNE 10.4 mph - N/A   Scattered Clouds
1:35 AM 62.1 °F 54.5 °F 76% 30.22 in 10.0 mi North 6.9 mph - N/A   Scattered Clouds
1:55 AM 61.9 °F 54.1 °F 76% 30.22 in 10.0 mi NNE 8.1 mph - N/A   Scattered Clouds
2:15 AM 61.9 °F 54.1 °F 76% 30.22 in 10.0 mi NNE 6.9 mph - N/A   Scattered Clouds
2:35 AM 61.9 °F 54.5 °F 77% 30.21 in 10.0 mi North 9.2 mph - N/A   Mostly Cloudy
2:55 AM 61.9 °F 54.5 °F 77% 30.21 in 10.0 mi NNE 8.1 mph - N/A   Mostly Cloudy
3:15 AM 61.7 °F 54.3 °F 77% 30.21 in 10.0 mi North 10.4 mph - N/A   Scattered Clouds
3:35 AM 61.0 °F 53.6 °F 77% 30.21 in 10.0 mi NNE 6.9 mph - N/A   Scattered Clouds
3:55 AM 61.2 °F 53.6 °F 76% 30.20 in 10.0 mi North 10.4 mph - N/A   Mostly Cloudy
4:15 AM 60.3 °F 52.9 °F 77% 30.21 in 10.0 mi NNE 6.9 mph - N/A   Scattered Clouds
4:35 AM 60.3 °F 52.9 °F 77% 30.20 in 10.0 mi North 9.2 mph - N/A   Scattered Clouds
4:55 AM 60.4 °F 52.7 °F 76% 30.20 in 10.0 mi North 9.2 mph - N/A   Mostly Cloudy
5:15 AM 60.3 °F 52.7 °F 76% 30.20 in 10.0 mi NNE 8.1 mph - N/A   Mostly Cloudy
5:35 AM 60.3 °F 52.5 °F 76% 30.20 in 10.0 mi NNE 8.1 mph - N/A   Scattered Clouds
5:55 AM 60.1 °F 52.3 °F 76% 30.20 in 10.0 mi NNE 8.1 mph - N/A   Mostly Cloudy
6:15 AM 60.1 °F 52.2 °F 75% 30.21 in 10.0 mi NNE 9.2 mph - N/A   Mostly Cloudy
6:35 AM 60.1 °F 52.3 °F 76% 30.21 in 10.0 mi North 9.2 mph - N/A   Mostly Cloudy
6:55 AM 59.4 °F 52.2 °F 77% 30.21 in 10.0 mi North 8.1 mph - N/A   Scattered Clouds
7:15 AM 58.6 °F 52.3 °F 80% 30.22 in 10.0 mi North 9.2 mph - N/A   Scattered Clouds
7:35 AM 58.6 °F 52.3 °F 80% 30.21 in 10.0 mi North 10.4 mph - N/A   Scattered Clouds
7:55 AM 58.5 °F 52.2 °F 80% 30.22 in 10.0 mi North 9.2 mph - N/A   Clear
8:15 AM 59.4 °F 52.5 °F 78% 30.22 in 10.0 mi NNE 11.5 mph - N/A   Clear
8:35 AM 61.3 °F 52.9 °F 74% 30.21 in 10.0 mi NNE 12.7 mph 16.1 mph N/A   Clear
8:55 AM 62.6 °F 53.1 °F 71% 30.22 in 10.0 mi NNE 8.1 mph 18.4 mph N/A   Clear
9:15 AM 63.5 °F 53.6 °F 70% 30.23 in 10.0 mi NNE 10.4 mph 16.1 mph N/A   Scattered Clouds
9:35 AM 65.1 °F 54.7 °F 69% 30.23 in 10.0 mi North 11.5 mph - N/A   Scattered Clouds
9:55 AM 65.8 °F 55.0 °F 68% 30.23 in 10.0 mi North 9.2 mph - N/A   Scattered Clouds
10:15 AM 67.5 °F 55.8 °F 66% 30.23 in 10.0 mi North 9.2 mph - N/A   Scattered Clouds
10:35 AM 69.3 °F 56.1 °F 63% 30.23 in 10.0 mi North 8.1 mph - N/A   Scattered Clouds
10:55 AM 71.4 °F 56.5 °F 59% 30.23 in 10.0 mi NNE 10.4 mph - N/A   Clear
11:15 AM 70.9 °F 56.5 °F 60% 30.23 in 10.0 mi NNE 8.1 mph - N/A   Scattered Clouds
11:35 AM 72.1 °F 57.0 °F 59% 30.22 in 10.0 mi NE 8.1 mph - N/A   Scattered Clouds
11:55 AM 73.2 °F 57.6 °F 58% 30.22 in 10.0 mi NNE 8.1 mph - N/A   Scattered Clouds
12:15 PM 74.5 °F 57.4 °F 55% 30.21 in 10.0 mi North 11.5 mph - N/A   Scattered Clouds
12:35 PM 74.7 °F 57.6 °F 55% 30.21 in 10.0 mi NE 8.1 mph - N/A   Scattered Clouds
12:55 PM 74.3 °F 57.9 °F 57% 30.21 in 10.0 mi ENE 5.8 mph - N/A   Clear
1:15 PM 76.5 °F 59.0 °F 55% 30.20 in 10.0 mi NE 5.8 mph - N/A   Clear
1:35 PM 76.1 °F 59.9 °F 57% 30.20 in 10.0 mi NE 5.8 mph - N/A   Clear
1:55 PM 76.3 °F 59.7 °F 56% 30.19 in 10.0 mi ENE 6.9 mph - N/A   Clear
2:15 PM 76.6 °F 59.9 °F 56% 30.19 in 10.0 mi East 4.6 mph - N/A   Clear
2:35 PM 77.5 °F 60.1 °F 55% 30.18 in 10.0 mi East 5.8 mph - N/A   Clear
2:55 PM 76.8 °F 60.1 °F 56% 30.17 in 10.0 mi ENE 5.8 mph - N/A   Clear
3:15 PM 76.8 °F 60.4 °F 57% 30.17 in 10.0 mi East 8.1 mph - N/A   Clear
3:35 PM 76.5 °F 60.6 °F 58% 30.16 in 10.0 mi ENE 6.9 mph - N/A   Clear
3:55 PM 76.3 °F 60.3 °F 57% 30.16 in 10.0 mi East 5.8 mph - N/A   Clear
4:15 PM 76.5 °F 60.4 °F 58% 30.15 in 10.0 mi NE 6.9 mph - N/A   Clear
4:35 PM 76.1 °F 60.1 °F 57% 30.15 in 10.0 mi East 3.5 mph - N/A   Clear
4:55 PM 76.1 °F 59.7 °F 57% 30.15 in 10.0 mi East 5.8 mph - N/A   Clear
5:15 PM 76.1 °F 60.3 °F 58% 30.15 in 10.0 mi ENE 4.6 mph - N/A   Clear
5:35 PM 75.2 °F 59.2 °F 57% 30.15 in 10.0 mi East 4.6 mph - N/A   Scattered Clouds
5:55 PM 75.7 °F 59.9 °F 58% 30.15 in 10.0 mi East 3.5 mph - N/A   Scattered Clouds
6:15 PM 74.3 °F 59.0 °F 59% 30.15 in 10.0 mi East 3.5 mph - N/A   Scattered Clouds
6:35 PM 74.3 °F 59.7 °F 60% 30.15 in 10.0 mi ENE 3.5 mph - N/A   Scattered Clouds
6:55 PM 73.9 °F 60.1 °F 62% 30.15 in 10.0 mi Calm Calm - N/A   Mostly Cloudy
7:15 PM 73.4 °F 59.4 °F 61% 30.15 in 10.0 mi Calm Calm - N/A   Mostly Cloudy
7:35 PM 73.2 °F 59.9 °F 63% 30.15 in 10.0 mi Calm Calm - N/A   Mostly Cloudy
7:55 PM 72.5 °F 59.9 °F 64% 30.15 in 10.0 mi NNE 3.5 mph - N/A   Mostly Cloudy
8:15 PM 72.3 °F 60.6 °F 67% 30.15 in 10.0 mi Calm Calm - N/A   Scattered Clouds
8:35 PM 70.7 °F 60.8 °F 71% 30.16 in 10.0 mi Calm Calm - N/A   Clear
8:55 PM 69.6 °F 61.0 °F 74% 30.16 in 10.0 mi Calm Calm - N/A   Clear
9:15 PM 68.9 °F 61.7 °F 78% 30.16 in 10.0 mi Calm Calm - N/A   Clear
9:35 PM 68.4 °F 61.3 °F 78% 30.17 in 10.0 mi Calm Calm - N/A   Clear
9:55 PM 67.3 °F 60.8 °F 80% 30.17 in 10.0 mi Calm Calm - N/A   Clear
10:15 PM 66.6 °F 61.0 °F 82% 30.17 in 10.0 mi Calm Calm - N/A   Clear
10:35 PM 66.4 °F 61.0 °F 83% 30.17 in 10.0 mi Calm Calm - N/A   Scattered Clouds
10:55 PM 66.6 °F 61.0 °F 82% 30.17 in 10.0 mi Calm Calm - N/A   Mostly Cloudy
11:15 PM 66.6 °F 61.0 °F 82% 30.17 in 10.0 mi Calm Calm - N/A   Scattered Clouds
11:35 PM 66.2 °F 60.8 °F 83% 30.17 in 10.0 mi North 3.5 mph - N/A   Scattered Clouds
11:55 PM 66.4 °F 60.8 °F 82% 30.17 in 10.0 mi North 4.6 mph - N/A   Mostly Cloudy